Theta_e
316 317 318 318 318 318 319 318 318 318 319 319 318 318 319 318 318 319 320 320 320 320 320 319 319 320 319 321 325 320 318 328 328 329 326 330 329 341 342 341 340 338 338 339
317 317 318 317 317 317 318 318 317 317 317 317 317 318 318 318 319 318 319 319 319 319 319 319 319 319 319 317 315 321 320 319 327 326 324 329 329 328 334 336 343 342 340 340
317 318 318 317 316 317 317 316 316 316 317 317 318 318 318 318 318 318 318 318 318 318 318 319 319 319 321 322 318 315 317 318 316 323 323 324 325 326 325 327 329 334 338 334
317 317 317 317 316 316 315 316 316 316 317 317 317 319 318 319 320 320 319 318 318 317 318 318 319 319 321 321 321 318 315 317 317 315 318 322 322 325 326 324 326 328 330 339
317 317 317 316 316 316 316 316 316 316 316 317 317 317 318 319 319 319 321 318 318 318 318 319 319 318 319 320 319 320 316 312 313 315 316 318 321 323 324 323 326 327 330 338
317 316 317 317 317 316 316 316 316 316 316 317 316 317 318 319 320 320 320 318 318 318 318 318 317 318 319 319 319 319 320 320 313 312 313 313 313 317 320 323 325 327 328 327
318 319 318 317 317 317 316 316 317 317 318 319 318 319 321 321 318 318 319 318 317 315 316 317 318 320 319 319 319 319 319 319 323 323 316 313 313 313 313 314 316 325 327 323
318 318 318 318 318 318 317 317 318 319 321 320 319 319 318 319 319 317 317 317 316 315 315 316 317 319 318 318 319 319 319 320 322 322 323 323 321 318 313 313 313 316 326 325
319 318 318 318 318 317 318 319 317 318 319 321 320 318 318 319 320 319 317 316 315 315 316 316 317 317 317 317 318 319 319 319 321 321 319 320 320 319 317 317 316 319 322 324
316 317 316 317 317 317 317 317 317 318 321 321 317 317 317 319 319 318 316 316 316 316 316 315 317 317 316 315 315 318 319 320 320 320 320 319 319 321 321 320 316 315 314 316
316 317 317 317 317 317 317 319 318 317 318 321 319 317 319 319 318 318 318 316 316 316 316 316 316 316 316 315 315 317 318 319 319 319 318 318 318 318 320 321 321 321 320 316
317 318 318 318 317 317 317 317 318 321 320 320 319 319 318 318 318 318 318 316 316 316 316 317 317 316 316 316 316 316 317 317 317 318 317 316 317 318 320 320 320 322 325 326
317 317 319 317 316 317 318 317 316 318 319 320 322 320 317 319 318 316 317 315 317 317 317 316 316 317 316 316 317 316 316 317 318 317 317 317 316 315 317 320 319 320 324 328
314 315 316 317 314 316 316 317 317 316 319 320 319 317 316 318 318 317 316 315 315 317 316 317 317 316 317 317 317 317 317 317 318 317 317 317 316 315 316 321 322 322 321 322
314 316 316 315 314 313 313 314 314 317 317 319 317 315 316 317 318 318 316 315 316 315 316 316 317 317 317 318 318 318 317 318 317 316 318 318 316 315 314 315 317 319 321 322
315 317 315 314 313 313 312 312 312 312 314 316 314 314 315 316 315 315 315 316 317 317 317 317 317 316 316 317 317 318 317 318 318 317 317 317 316 315 314 316 317 316 318 323
311 311 312 312 311 312 314 315 315 313 315 314 315 317 318 317 317 317 316 317 317 317 317 316 315 316 317 317 317 317 318 317 317 317 318 316 316 315 314 314 314 315 315 318
310 310 312 314 312 315 312 314 315 315 316 316 316 318 317 317 316 316 316 316 317 316 316 316 316 317 317 317 316 315 315 316 318 317 318 316 316 315 314 312 313 313 314 315
312 312 315 315 315 313 312 316 316 316 315 317 317 316 315 315 315 315 315 315 315 314 314 314 315 315 315 315 314 314 315 314 315 317 316 315 315 314 313 312 311 312 313 313
314 314 315 315 315 314 318 315 315 315 320 316 315 315 315 314 315 314 314 313 313 313 314 313 313 313 314 315 314 314 315 315 317 316 315 315 314 314 312 312 311 311 310 311
316 314 313 315 316 314 316 316 315 316 318 315 313 314 314 314 314 313 313 313 313 312 311 311 311 312 312 313 312 311 311 311 311 314 313 314 314 313 312 311 311 311 311 311
316 316 317 317 317 318 314 315 316 315 312 312 313 312 312 312 312 312 312 312 312 311 311 310 310 310 311 311 311 310 310 311 312 311 310 310 310 310 309 309 311 309 309 313
316 315 318 316 317 316 313 312 310 310 310 310 310 309 309 309 309 311 311 311 310 309 308 307 309 310 309 309 309 308 309 310 310 309 308 309 310 309 308 310 310 310 313 315
313 312 313 314 314 312 309 308 308 308 306 306 306 307 308 308 308 308 308 307 307 307 306 307 307 307 307 308 308 308 309 309 308 309 313 314 318 316 310 310 311 313 319 320
313 313 312 311 311 307 307 306 305 304 305 306 305 304 303 303 304 304 304 305 306 305 305 306 306 306 306 306 307 308 309 310 311 314 319 320 316 316 311 310 312 318 324 329
310 310 310 310 306 305 304 303 303 305 305 304 302 303 301 301 301 302 302 302 303 303 304 304 304 305 306 306 308 309 311 312 315 321 328 319 318 316 315 319 321 325 330 334
Wind_Speed
16 11 12 16 17 18 16 17 17 21 22 17 16 17 14 17 23 25 22 25 27 25 25 20 13 16 18 19 19 12 16 29 35 35 23 24 9 9 6 7 8 25 29 28
14 14 15 16 16 18 14 17 19 20 20 18 20 22 18 19 22 27 28 27 21 22 25 23 25 19 15 19 21 21 19 18 27 26 20 33 34 29 14 7 6 10 13 19
15 16 17 9 15 16 15 17 19 20 20 21 21 20 19 25 32 37 35 31 27 24 25 28 31 29 19 15 17 19 26 24 19 24 24 25 32 33 31 37 37 27 22 22
15 16 16 16 12 14 17 16 17 17 17 15 16 17 20 21 21 18 15 20 24 21 17 13 27 24 17 11 10 15 20 27 22 17 16 30 36 35 36 35 34 31 23 26
18 16 17 17 15 16 19 16 16 20 19 21 21 14 19 20 22 21 18 25 13 11 11 12 11 11 12 9 13 13 15 19 20 20 20 16 27 34 37 33 28 33 27 32
22 26 23 22 20 16 18 16 17 18 17 16 24 21 21 18 20 17 14 18 15 9 14 15 15 17 11 13 15 15 11 15 17 20 22 21 24 21 31 36 30 34 41 37
22 24 25 25 24 22 21 17 13 16 13 15 22 14 10 16 3 12 14 13 13 12 13 12 13 16 15 18 17 14 15 16 11 12 16 21 22 26 25 26 32 38 41 39
19 21 20 18 16 19 21 18 11 15 15 17 22 6 11 12 18 13 6 19 9 7 12 16 17 18 16 13 14 15 15 14 18 19 17 18 19 21 24 28 28 31 41 40
18 26 22 19 17 14 18 18 19 18 13 11 17 26 23 19 22 11 10 9 11 9 10 11 9 5 11 16 17 16 15 18 16 22 20 21 23 22 22 23 27 29 32 33
17 21 20 21 22 17 16 17 15 10 7 18 17 19 12 18 10 11 8 11 10 9 13 12 14 17 16 17 21 19 20 21 21 20 18 23 21 23 26 24 26 29 35 37
16 16 19 21 19 21 13 17 18 16 13 15 16 15 4 3 2 12 11 13 13 12 15 14 17 19 22 17 22 23 22 23 21 20 19 19 24 25 27 28 28 30 32 34
18 13 16 18 23 22 19 18 16 15 12 12 11 17 10 7 5 13 19 11 15 17 19 18 17 18 18 18 25 22 20 21 22 20 22 23 20 19 26 29 31 31 30 31
8 7 11 13 18 16 6 17 20 15 12 19 14 17 12 10 3 15 27 33 26 16 14 15 16 18 21 23 23 21 22 22 24 23 22 23 23 23 25 30 32 35 33 33
4 13 17 16 22 21 12 19 12 11 8 14 16 23 17 13 16 16 31 26 31 28 20 21 19 21 20 21 22 22 23 22 17 24 28 24 23 25 26 25 23 29 34 38
2 14 19 19 22 24 24 25 21 18 18 18 25 24 23 18 19 17 31 29 43 28 24 21 15 16 16 20 23 27 27 26 27 27 18 27 25 24 26 28 37 34 33 37
10 4 16 20 19 25 28 26 27 27 23 27 24 25 21 25 29 26 28 30 20 15 18 23 21 22 20 24 28 26 28 22 22 28 30 27 28 28 28 30 33 39 39 34
16 14 15 19 19 20 14 18 27 20 20 22 15 19 21 21 20 22 23 23 20 16 20 23 23 25 23 25 21 23 25 28 32 33 34 32 32 32 29 32 36 38 43 43
13 14 11 13 15 18 19 6 8 11 11 16 16 14 8 15 18 20 20 21 22 21 18 22 24 25 26 28 30 36 39 36 36 35 34 34 35 34 38 41 36 40 43 44
9 11 5 5 10 18 21 8 8 7 13 13 8 12 16 24 27 23 22 19 27 31 31 31 30 31 35 37 41 41 40 43 44 43 43 44 44 40 35 37 41 41 43 49
5 5 4 8 4 6 7 4 12 10 11 16 19 15 17 24 14 14 33 37 37 37 34 35 36 39 42 42 36 38 42 47 47 46 47 46 47 47 46 45 46 48 50 53
3 2 5 9 7 9 13 17 21 10 9 28 29 29 24 15 16 32 37 35 33 34 39 42 44 43 42 41 41 46 45 46 46 42 38 38 39 41 45 53 53 51 48 49
2 3 2 3 4 6 10 7 7 13 25 30 29 29 32 36 39 39 37 38 39 38 40 42 46 45 42 43 45 46 47 48 46 48 50 57 59 62 61 58 56 58 52 47
4 1 3 4 6 17 24 22 22 29 29 30 34 37 37 39 41 41 43 39 36 38 43 48 44 43 42 42 44 48 51 47 48 60 70 72 72 72 66 57 54 47 43 45
9 10 6 8 7 19 29 26 31 31 35 39 38 40 36 36 37 38 42 45 47 44 41 40 41 43 41 37 39 40 39 45 52 58 71 77 58 62 65 58 47 46 40 46
5 11 11 15 12 32 14 26 32 35 37 40 30 40 44 41 40 40 39 39 39 37 35 34 34 38 42 45 46 41 38 40 51 52 51 11 14 39 52 51 46 41 41 46
7 5 2 4 21 16 27 39 38 40 38 36 41 42 38 35 38 38 37 33 34 35 36 40 44 41 40 34 37 37 34 35 35 32 3 13 28 30 35 32 35 39 35 38
Wind_Direction
258 241 244 254 259 261 286 295 297 293 300 307 297 278 273 283 284 280 262 216 223 236 246 204 205 213 205 201 202 209 204 214 213 227 251 247 246 276 237 283 266 234 237 244
238 250 258 260 270 284 295 284 279 283 280 279 278 273 276 275 270 268 268 267 247 231 233 208 191 203 212 222 221 218 223 218 223 227 244 243 251 255 245 265 310 269 251 262
262 273 293 280 286 284 262 264 272 278 286 287 290 284 279 266 254 252 249 251 253 248 240 224 190 196 191 222 227 226 226 230 224 227 230 257 246 248 254 256 257 254 268 280
270 282 276 292 261 270 271 276 286 293 289 280 285 283 282 287 291 274 232 236 237 234 240 258 184 176 190 202 266 247 233 232 237 241 248 223 244 256 254 262 262 269 267 261
267 266 277 257 248 270 280 291 295 296 287 288 270 267 276 268 259 247 238 208 209 230 213 160 180 202 215 227 245 272 263 238 241 244 245 243 231 238 248 257 258 260 250 241
276 277 279 272 275 259 256 290 278 274 274 262 264 257 262 259 268 258 217 165 176 187 198 198 212 201 209 239 245 240 264 275 258 251 256 255 248 249 244 248 250 246 252 266
262 257 243 242 256 248 253 249 266 260 251 252 260 284 318 300 246 318 135 152 175 194 211 211 198 188 217 219 218 241 265 275 263 272 259 258 260 257 259 251 254 248 249 262
271 273 274 292 274 256 259 247 254 271 278 281 287 223 267 309 316 240 188 181 181 197 242 222 212 208 219 227 229 231 234 256 263 274 264 255 254 257 259 259 258 249 236 250
294 288 294 264 279 269 252 241 260 283 307 289 277 277 278 234 232 241 228 194 241 222 234 247 215 232 258 258 245 238 237 244 258 259 270 280 284 278 267 262 252 244 247 251
283 293 292 296 294 263 274 290 275 259 264 270 269 282 296 342 170 231 227 240 228 206 223 239 241 235 243 262 266 244 240 241 251 247 251 270 272 279 283 277 268 263 257 258
276 275 279 285 272 271 254 237 268 262 243 253 267 269 156 261 177 214 258 206 220 226 232 248 249 245 252 267 262 251 243 238 237 245 258 265 273 278 269 277 277 274 272 267
295 304 287 264 287 292 271 273 256 259 250 234 283 278 135 243 45 316 292 253 246 236 240 250 262 269 275 270 265 258 256 248 251 253 267 266 267 277 276 273 274 271 271 269
307 236 284 293 291 265 6 319 309 323 323 266 261 263 259 186 213 313 295 317 331 270 249 264 271 276 264 260 262 263 258 253 248 249 248 252 265 271 276 268 271 269 265 263
320 282 269 269 277 293 300 279 261 244 289 294 268 280 288 281 209 200 242 286 285 269 267 264 262 266 265 264 266 268 267 266 268 258 264 254 260 270 262 262 264 267 268 269
279 265 261 271 297 298 289 287 278 232 237 250 269 272 277 279 287 266 227 235 258 269 269 274 274 277 266 266 268 271 264 265 266 268 252 261 263 266 280 270 263 262 270 267
170 227 268 275 277 273 279 289 274 271 252 239 265 274 278 272 267 268 277 284 301 323 282 267 262 264 271 264 262 262 261 267 268 260 259 260 270 267 262 264 262 260 258 268
288 290 290 287 291 300 292 272 276 283 305 287 294 333 348 346 312 329 348 333 310 287 284 301 300 310 307 299 293 300 300 284 274 263 257 258 259 256 257 264 266 267 262 257
259 266 277 284 291 274 277 312 330 297 302 354 328 331 321 273 299 306 309 291 270 299 312 311 306 302 294 287 290 287 287 281 273 264 258 257 254 257 260 269 265 263 259 261
256 257 293 263 268 278 288 13 353 18 306 325 343 345 333 321 317 297 284 299 323 321 317 313 307 302 295 288 285 281 279 278 271 260 257 257 256 253 254 259 261 258 258 257
73 39 216 258 273 285 37 115 259 249 261 1 347 331 314 325 309 304 325 320 314 311 306 305 300 294 290 287 285 283 279 274 263 260 260 258 251 248 252 252 257 249 263 260
205 188 219 244 243 273 27 351 334 280 325 329 329 318 320 312 298 303 306 306 302 303 301 298 293 289 290 293 289 286 287 285 287 276 266 256 251 251 251 261 255 248 258 259
179 291 255 220 247 270 25 353 6 314 326 326 317 316 316 314 311 305 303 300 302 302 299 298 296 295 295 291 289 289 288 288 284 284 279 272 265 258 255 252 241 252 248 245
12 18 271 290 310 315 358 351 340 334 320 320 317 313 310 306 301 299 303 297 301 301 301 299 295 295 288 289 293 292 286 291 289 285 281 273 261 247 242 233 239 238 234 230
323 335 305 323 328 332 337 336 336 329 319 314 312 310 312 311 308 304 303 302 299 296 297 298 297 293 294 294 290 292 296 293 288 284 290 288 280 235 214 219 222 225 220 213
350 310 340 301 314 334 318 326 321 316 313 310 307 308 306 301 299 298 298 295 297 298 299 298 293 291 290 290 289 294 297 290 294 295 304 334 104 162 186 205 215 216 210 211
16 17 331 281 311 302 297 310 314 312 313 317 316 311 308 306 304 299 295 298 297 297 296 291 291 297 300 299 296 297 291 290 293 316 324 140 132 150 171 182 194 199 206 198